Weather Roundup
Issued by NWS Springfield, MO

Home | Current Version | Previous Version | Text Only | Print | Product List | Glossary On
Versions: 1 2 3 4 5 6 7 8 9 10 11 12 13 14 15 16 17 18 19 20 21 22 23 24 25 26 27 28 29 30 31 32 33 34 35 36 37 38 39 40 41 42 43 44 45 46 47 48 49 50
000
NZUS99 KSGF 310157
HRRSGF

HOURLY WEATHER
NATIONAL WEATHER SERVICE SPRINGFIELD MO
900 PM CDT SUN AUG 30 2015

......SGF CWA......

CITY           SKY/WX    TMP DP  RH WIND       PRES   REMARKS
SPRINGFIELD    CLEAR     75  68  78 SE6       30.00R
JOPLIN         CLEAR     78  72  81 SE7       29.97R
WEST PLAINS    PTCLDY    76  69  79 CALM      30.05R
ROLLA          CLOUDY    76  70  82 SE6       30.01R

......SURROUNDING SGF CWA......

CITY           SKY/WX    TMP DP  RH WIND       PRES   REMARKS
CHANUTE        PTCLDY    76  70  82 NE5       29.96R
PARSONS        LGT RAIN  76  75  97 CALM      29.96R
COFFEYVILLE    PTCLDY    78  75  90 CALM      29.95R
EMPORIA        CLEAR     73  67  81 SE5       29.96R

......KANSAS AND MISSOURI......

CITY           SKY/WX    TMP DP  RH WIND       PRES   REMARKS
KANSAS CTY INT CLEAR     78  69  73 SE7       29.97R
SEDALIA        PTCLDY    78  71  79 E6        29.99R
ST JOSEPH      PTCLDY    76  70  82 E5        29.96R
ST LOUIS       MOCLDY    81  69  67 SE7       30.01R
WICHITA        CLEAR     76  66  71 SE6       29.95R
TOPEKA         CLEAR     75  71  87 CALM      29.96R
OLATHE         CLEAR     76  70  82 SE5       29.97R

......TENNESSEE......

CITY           SKY/WX    TMP DP  RH WIND       PRES   REMARKS
MEMPHIS        NOT AVBL
NASHVILLE      MOCLDY    72  64  76 S6        30.10R

......ARKANSAS.......

CITY           SKY/WX    TMP DP  RH WIND       PRES   REMARKS
FAYETTEVILLE   CLEAR     73  72  96 CALM      30.00R
FT SMITH       MOCLDY    78  66  66 CALM      29.96R
LITTLE ROCK    PTCLDY    83  67  58 SE9       29.99R

......OKLAHOMA.......

CITY           SKY/WX    TMP DP  RH WIND       PRES   REMARKS
TULSA          PTCLDY    79  74  84 SE3       29.91R
PONCA CITY     CLEAR     77  69  76 SE7       29.93R
MCALESTER      CLOUDY    76  68  76 SE6       29.94R
OKLAHOMA CITY  FAIR      76  64  66 E7        29.93R

......IOWA............

CITY           SKY/WX    TMP DP  RH WIND       PRES   REMARKS
DES MOINES     NOT AVBL
QUAD CITIES    CLEAR     68  64  87 E3        30.01R

......ILLINOIS........

CITY           SKY/WX    TMP DP  RH WIND       PRES   REMARKS
QUINCY         CLEAR     77  69  76 E6        30.01R
CHICAGO        CLEAR     68  63  84 E6        30.04R



USA.gov is the U.S. government's official web portal to all federal, state and local government web resources and services.